Location: Maccacari
(45.1333°N, 11.1333°E)
Time: 01:51:41
(UTC+00:00)

Altair - Pass Details

Date: 25 January 2021
Orbit: 1501 x 1682 km, 47.2° (Epoch: 01 March)

Event Time Altitude Azimuth Distance (km) Brightness Sun altitude
Rises 02:32:13 0° 199° (SSW) 4,814 - -43.8°
Reaches altitude 10° 02:35:44 10° 190° (S) 3,856 - -43.2°
Exits shadow 02:41:53 29° 154° (SSE) 2,684 8.7 -42.2°
Maximum altitude 02:44:02 32° 132° (SE) 2,586 8.7 -41.8°
Drops below altitude 10° 02:52:29 10° 75° (ENE) 3,946 10.3 -40.4°
Sets 02:56:07 0° 67° (ENE) 4,940 11.0 -39.8°
